This demonstration page uses our WeatherBlox Daily Observations layout. Learn more.

Left ArrowRight Arrow

39.08367, -84.50855

Hourly Observations for July 13, 2017

Temp ( °F °C ) Dew Point ( °F °C ) Humidity (%) Winds ( mph kmh ) Pressure ( in mb ) Visibility ( mi km ) Precip ( " mm )
12:53 am 00:53 Clear 75 23.9 75 23.9 100 100 WSW 6 9 30.04 1017 8 12.87472 N/A
1:53 am 01:53 Clear 76 24.4 74 23.3 94 94 SSW 9 15 30.04 1017 10 16.0934 N/A
2:53 am 02:53 Clear 78 25.6 73 22.8 85 85 SW 6 9 30.04 1017 10 16.0934 N/A
3:53 am 03:53 Clear 76 24.4 72 22.2 88 88 SSW 7 11 30.02 1017 10 16.0934 N/A
4:53 am 04:53 Mostly Cloudy 75 23.9 73 22.8 94 94 SSW 6 9 30.02 1017 10 16.0934 N/A
5:53 am 05:53 Mostly Clear 74 23.3 73 22.8 97 97 S 6 9 30.02 1017 10 16.0934 N/A
6:53 am 06:53 Mostly Cloudy 76 24.4 74 23.3 94 94 SSW 8 13 30.04 1017 9 14.48406 N/A
7:53 am 07:53 Sunny 79 26.1 75 23.9 88 88 SSW 9 15 30.04 1017 10 16.0934 N/A
8:33 am 08:33 Partly Cloudy with Nearby Thunderstorms 79 26.1 75 23.9 88 88 SSW 12 19 30.03 1017 10 16.0934 N/A
8:37 am 08:37 Partly Cloudy with Nearby Thunderstorms 80 26.7 74 23.3 82 82 SSW 10 17 30.03 1017 10 16.0934 N/A
8:53 am 08:53 Partly Cloudy 80 26.7 74 23.3 82 82 SW 8 13 30.06 1018 10 16.0934 N/A
9:04 am 09:04 Mostly Cloudy with Nearby Thunderstorms 79 26.1 75 23.9 88 88 SW 6 9 30.03 1017 10 16.0934 N/A
9:23 am 09:23 Cloudy with Nearby Thunderstorms 79 26.1 75 23.9 88 88 SW 7 11 30.06 1018 10 16.0934 N/A
9:53 am 09:53 Cloudy with Nearby Thunderstorms 79 26.1 74 23.3 85 85 NNW 10 17 30.1 1019 10 16.0934 N/A
10:02 am 10:02 Cloudy with Nearby Thunderstorms 78 25.6 75 23.9 90 90 N 8 13 30.09 1019 9 14.48406 N/A
10:29 am 10:29 Cloudy with Mist and Fog 77 25 75 23.9 94 94 ENE 3 6 30.09 1019 5 8.0467 N/A
10:53 am 10:53 Mostly Cloudy with Light Thunderstorms 77 25 75 23.9 94 94 S 5 7 30.09 1019 4 6.43736 N/A
11:45 am 11:45 Mostly Cloudy 79 26.1 76 24.4 90 90 SSW 5 7 30.06 1018 9 14.48406 N/A
11:53 am 11:53 Mostly Sunny 80 26.7 76 24.4 87 87 S 8 13 30.08 1019 9 14.48406 N/A
12:53 pm 12:53 Sunny 85 29.4 77 25 77 77 SSW 12 19 30.06 1018 10 16.0934 N/A
1:53 pm 13:53 Partly Cloudy with Light Rain 88 31.1 78 25.6 73 73 WSW 7 11 30.04 1017 10 16.0934 N/A
2:39 pm 14:39 Mostly Cloudy with Nearby Thunderstorms 87 30.6 76 24.4 70 70 SW 10 17 30 1016 10 16.0934 N/A
2:51 pm 14:51 Mostly Cloudy with Light Thunderstorms 84 29 75 24 74 74 WNW 13 20 30.03 1017 9 14.48406 0.01 0.254
2:53 pm 14:53 Mostly Cloudy with Light Thunderstorms 83 28.3 76 24.4 79 79 WNW 16 26 30.04 1017 9 14.48406 0.01 0.254
3:04 pm 15:04 Cloudy with Heavy Thunderstorms 76 24.4 75 23.9 97 97 W 23 37 30.06 1018 2 3.21868 0.17 4.318
3:29 pm 15:29 Mostly Cloudy with Heavy Thunderstorms 76 24.4 74 23.3 94 94 SSW 14 22 30.03 1017 4 6.43736 0.3 7.62
3:53 pm 15:53 Mostly Cloudy with Nearby Thunderstorms 76 24.4 74 23.3 94 94 SSW 6 9 30.04 1017 10 16.0934 0.3 7.62
4:24 pm 16:24 Sunny 75 23.9 74 23.3 96 96 W 5 7 30.03 1017 10 16.0934 N/A
4:53 pm 16:53 Partly Cloudy 77 25 74 23.3 90 90 N N/A 30.04 1017 10 16.0934 N/A
5:53 pm 17:53 Partly Cloudy 80 26.7 75 23.9 85 85 N N/A 30.02 1017 10 16.0934 N/A
6:53 pm 18:53 Sunny 83 28.3 77 25 82 82 SSW 5 7 30 1016 10 16.0934 N/A
7:53 pm 19:53 Sunny 83 28.3 78 25.6 85 85 N N/A 30.01 1016 10 16.0934 N/A
8:53 pm 20:53 Mostly Sunny 78 25.6 77 25 97 97 SE 3 6 30.02 1017 8 12.87472 N/A
9:53 pm 21:53 Clear with Mist and Fog 76 24.4 76 24.4 100 100 N N/A 30 1016 6 9.65604 N/A
10:53 pm 22:53 Clear with Mist and Fog 76 24.4 76 24.4 100 100 ENE 5 7 30.04 1017 6 9.65604 N/A
11:10 pm 23:10 Partly Cloudy with Nearby Thunderstorms 75 23.9 75 23.9 100 100 S 3 6 30.03 1017 5 8.0467 N/A
11:25 pm 23:25 Mostly Cloudy 76 24.4 76 24.4 100 100 N N/A 30.03 1017 7 11.26538 N/A
11:53 pm 23:53 Mostly Cloudy 77 25 77 25 100 100 N N/A 30.04 1017 8 12.87472 N/A

Powered by AerisWeather